EW2692 Weather Reports


Display with metric or nautical units.
time (UTC)temp
F
wind
direction
speed
MPH
gust
MPH
rain 1hr
in
rain 24hr
in
rain mn
in
humidity
%
barometer
mb
20260507124535 25 85 0.0 0.0 0.00 0.00 0.00 72 938.4
20260507123033 23 85 0.0 0.0 0.00 0.00 0.00 75 938.2
20260507121533 21 85 0.0 0.0 0.00 0.00 0.00 75 938.2
20260507120039 21 85 0.0 0.0 0.00 0.00 0.00 72 938.2
20260507114532 21 85 0.0 0.0 0.00 0.00 0.00 72 938.1
20260507113030 21 85 0.0 0.0 0.00 0.00 0.00 71 938.1
20260507111528 21 85 0.0 0.0 0.00 0.00 0.00 71 938.2
20260507110029 21 85 0.0 0.0 0.00 0.00 0.00 71 938.2
20260507104526 21 85 0.0 0.0 0.00 0.00 0.00 69 938.2
20260507103026 22 85 0.0 0.0 0.00 0.00 0.00 69 938.1
20260507101524 22 85 0.0 0.0 0.00 0.00 0.00 68 938.1
20260507100029 23 85 0.0 0.0 0.00 0.00 0.00 66 938.2
20260507094518 24 85 0.0 0.0 0.00 0.00 0.00 63 938.2
20260507093014 25 85 0.0 0.0 0.00 0.00 0.00 60 938.1
20260507091514 27 85 0.0 0.0 0.00 0.00 0.00 57 938.1
20260507090010 28 85 0.0 0.0 0.00 0.00 0.00 55 938.1
20260507084512 28 85 0.0 0.0 0.00 0.00 0.00 56 938.1
20260507083007 28 85 0.0 0.0 0.00 0.00 0.00 56 938.1
20260507081508 27 85 0.0 0.0 0.00 0.00 0.00 56 938.1
20260507080007 28 85 0.0 0.0 0.00 0.00 0.00 55 938.1
20260507074610 29 85 0.0 0.0 0.00 0.00 0.00 52 938.0
20260507073057 30 85 0.0 1.0 0.00 0.00 0.00 50 937.9
20260507071556 31 85 0.0 1.0 0.00 0.00 0.00 49 937.9
20260507070052 31 85 0.0 2.0 0.00 0.00 0.00 48 937.8
20260507064549 32 85 0.0 1.0 0.00 0.00 0.00 47 937.8
20260507063045 33 85 0.0 1.0 0.00 0.00 0.00 45 937.8
20260507061541 35 84 0.0 1.0 0.00 0.00 0.00 42 937.6
20260507060038 38 81 0.0 2.0 0.00 0.00 0.00 39 937.6
20260507054542 37 80 1.0 2.0 0.00 0.00 0.00 39 937.6
20260507053035 36 85 0.0 2.0 0.00 0.00 0.00 39 937.6
20260507051535 37 85 0.0 2.0 0.00 0.00 0.00 37 937.6
20260507050034 38 81 1.0 3.0 0.00 0.00 0.00 35 937.6
20260507044535 39 79 1.0 3.0 0.00 0.00 0.00 35 937.6
20260507043032 39 75 1.0 3.0 0.00 0.00 0.00 36 937.7
20260507041531 38 80 1.0 2.0 0.00 0.00 0.00 37 937.8
20260507040031 39 80 1.0 3.0 0.00 0.00 0.00 35 937.8
20260507034530 41 75 1.0 3.0 0.00 0.00 0.00 34 937.8
20260507033029 41 67 1.0 4.0 0.00 0.00 0.00 33 937.9
20260507031529 41 300 0.0 2.0 0.00 0.00 0.00 34 937.9
20260507030029 42 306 0.0 2.0 0.00 0.00 0.00 34 937.8
20260507024532 45 304 0.0 3.0 0.00 0.00 0.00 32 937.8
20260507023028 47 303 0.0 3.0 0.00 0.00 0.00 32 937.8
20260507021526 49 303 1.0 4.0 0.00 0.00 0.00 27 937.7
20260507020026 51 303 1.0 3.0 0.00 0.00 0.00 23 937.7
20260507014536 54 303 1.0 4.0 0.00 0.00 0.00 21 937.7
20260507013025 55 303 2.0 7.0 0.00 0.00 0.00 20 937.7
20260507011525 56 292 1.0 5.0 0.00 0.00 0.00 21 937.7
20260507010023 56 292 1.0 10.0 0.00 0.00 0.00 20 937.7
20260507004523 56 283 3.0 10.0 0.00 0.00 0.00 21 937.8
20260507003021 56 283 4.0 12.0 0.00 0.00 0.00 20 937.9
20260507001526 56 277 5.0 11.0 0.00 0.00 0.00 21 938.0
20260507000031 56 288 8.0 13.0 0.00 0.00 0.00 20 938.0
20260506234518 56 266 5.0 13.0 0.00 0.00 0.00 20 938.2
20260506233017 56 290 3.0 13.0 0.00 0.00 0.00 20 938.2
20260506231515 56 273 6.0 11.0 0.00 0.00 0.00 20 938.3
20260506230014 56 276 5.0 15.0 0.00 0.00 0.00 20 938.4
20260506224512 56 281 4.0 10.0 0.00 0.00 0.00 19 938.5
20260506223010 56 273 7.0 15.0 0.00 0.00 0.00 21 938.8
20260506221510 55 302 7.0 16.0 0.00 0.00 0.00 20 938.8
20260506220016 56 305 7.0 15.0 0.00 0.00 0.00 20 939.1
20260506214506 55 296 5.0 10.0 0.00 0.00 0.00 20 939.1
20260506213002 54 270 3.0 12.0 0.00 0.00 0.00 21 939.4
20260506211601 55 281 7.0 16.0 0.00 0.00 0.00 20 939.6
20260506210058 55 296 7.0 14.0 0.00 0.00 0.00 22 939.9
20260506204556 55 279 7.0 17.0 0.00 0.00 0.00 21 940.2
20260506203053 54 271 3.0 10.0 0.00 0.00 0.00 22 940.2
20260506201550 53 293 5.0 15.0 0.00 0.00 0.00 22 940.6
20260506200047 52 279 3.0 11.0 0.00 0.00 0.00 24 940.8
20260506194545 52 273 6.0 14.0 0.00 0.00 0.00 22 941.0
20260506193043 52 248 4.0 11.0 0.00 0.00 0.00 24 941.2
20260506191541 51 211 5.0 12.0 0.00 0.00 0.00 23 941.4
20260506190038 52 271 5.0 14.0 0.00 0.00 0.00 23 941.7
20260506184535 51 303 5.0 11.0 0.00 0.00 0.00 24 941.9
20260506183032 50 296 6.0 11.0 0.00 0.00 0.00 23 942.0
20260506181531 50 269 4.0 14.0 0.00 0.00 0.00 26 942.3
20260506180027 49 215 2.0 9.0 0.00 0.00 0.00 31 942.7
20260506174522 48 173 2.0 10.0 0.00 0.00 0.00 31 942.9
20260506173020 46 284 5.0 11.0 0.00 0.00 0.00 34 943.1
20260506171520 46 298 4.0 9.0 0.00 0.00 0.00 36 943.4
20260506170014 46 229 1.0 8.0 0.00 0.00 0.00 38 943.6
20260506164512 45 279 0.0 8.0 0.00 0.00 0.00 38 943.9
20260506163021 45 182 1.0 4.0 0.00 0.00 0.00 40 944.0
20260506161506 45 281 3.0 7.0 0.00 0.00 0.00 40 944.3
20260506160003 43 250 1.0 7.0 0.00 0.00 0.00 43 944.3
20260506154623 42 263 0.0 6.0 0.00 0.00 0.00 46 944.5
20260506153107 41 275 1.0 8.0 0.00 0.00 0.00 48 944.6
20260506151558 41 252 0.0 3.0 0.00 0.00 0.00 49 944.7
20260506150051 39 273 0.0 3.0 0.00 0.00 0.00 52 944.9
20260506144549 39 271 1.0 3.0 0.00 0.00 0.00 51 945.0
20260506143100 37 306 0.0 1.0 0.00 0.00 0.00 55 945.1
20260506141543 34 307 0.0 0.0 0.00 0.00 0.00 60 945.2
20260506140039 31 307 0.0 1.0 0.00 0.00 0.00 62 945.4
20260506134534 30 307 0.0 1.0 0.00 0.00 0.00 65 945.5
20260506133030 28 307 0.0 1.0 0.00 0.00 0.00 68 945.5
20260506131528 25 307 0.0 1.0 0.00 0.00 0.00 71 945.5
20260506130027 23 306 0.0 0.0 0.00 0.00 0.00 75 945.5